| time (UTC) | temp F | wind direction | speed knots | gust knots | rain 1hr in | rain 24hr in | rain mn in | humidity % | barometer mb |
| 20260507020020 | 42 | 208 | 4.3 | 13.0 | 0.00 | 0.36 | 0.36 | 100 | 1009.2 |
| 20260507014604 | 42 | 207 | 6.1 | 14.8 | 0.00 | 0.36 | 0.36 | 100 | 1008.9 |
| 20260507013041 | 42 | 208 | 6.1 | 13.0 | 0.00 | 0.36 | 0.36 | 100 | 1009.1 |
| 20260507011518 | 42 | 208 | 7.0 | 19.1 | 0.00 | 0.36 | 0.36 | 100 | 1008.5 |
| 20260507010057 | 43 | 208 | 10.4 | 17.4 | 0.00 | 0.36 | 0.36 | 100 | 1008.3 |
| 20260507004534 | 43 | 207 | 9.6 | 15.6 | 0.00 | 0.36 | 0.36 | 100 | 1008.1 |
| 20260507003013 | 43 | 207 | 8.7 | 14.8 | 0.00 | 0.36 | 0.36 | 100 | 1007.9 |
| 20260507001608 | 43 | 209 | 11.3 | 20.9 | 0.00 | 0.36 | 0.36 | 100 | 1007.5 |
| 20260507000030 | 43 | 208 | 11.3 | 20.9 | 0.00 | 0.36 | 0.36 | 100 | 1007.1 |
| 20260506234508 | 43 | 208 | 11.3 | 20.9 | 0.00 | 0.36 | 0.36 | 100 | 1006.9 |
| 20260506233043 | 43 | 207 | 11.3 | 23.5 | 0.00 | 0.36 | 0.36 | 100 | 1006.8 |
| 20260506231522 | 44 | 206 | 13.0 | 25.2 | 0.00 | 0.36 | 0.36 | 100 | 1006.7 |
| 20260506230101 | 44 | 206 | 14.8 | 23.5 | 0.00 | 0.36 | 0.36 | 99 | 1006.3 |
| 20260506224546 | 45 | 207 | 13.0 | 23.5 | 0.00 | 0.36 | 0.36 | 99 | 1006.0 |
| 20260506223016 | 46 | 207 | 10.4 | 19.1 | 0.00 | 0.36 | 0.36 | 99 | 1005.9 |
| 20260506221601 | 47 | 208 | 10.4 | 20.9 | 0.00 | 0.36 | 0.36 | 99 | 1005.6 |
| 20260506220045 | 49 | 207 | 7.8 | 14.8 | 0.00 | 0.36 | 0.36 | 99 | 1005.4 |
| 20260506214517 | 53 | 204 | 7.0 | 15.6 | 0.00 | 0.36 | 0.36 | 97 | 1005.1 |
| 20260506213053 | 56 | 204 | 3.5 | 7.8 | 0.00 | 0.36 | 0.36 | 100 | 1004.6 |
| 20260506211531 | 56 | 204 | 2.6 | 7.0 | 0.00 | 0.36 | 0.36 | 100 | 1004.3 |
| 20260506210010 | 56 | 204 | 3.5 | 11.3 | 0.00 | 0.36 | 0.36 | 100 | 1004.1 |
| 20260506204548 | 56 | 204 | 3.5 | 8.7 | 0.00 | 0.47 | 0.36 | 100 | 1004.0 |
| 20260506203026 | 56 | 204 | 3.5 | 9.6 | 0.00 | 0.47 | 0.36 | 100 | 1003.9 |
| 20260506201604 | 56 | 204 | 2.6 | 7.8 | 0.00 | 0.47 | 0.36 | 100 | 1003.9 |
| 20260506200046 | 55 | 204 | 2.6 | 7.8 | 0.00 | 0.47 | 0.36 | 100 | 1004.0 |
| 20260506194531 | 55 | 204 | 2.6 | 8.7 | 0.00 | 0.53 | 0.36 | 100 | 1004.1 |
| 20260506193105 | 55 | 204 | 4.3 | 10.4 | 0.00 | 0.53 | 0.36 | 100 | 1004.1 |
| 20260506191540 | 55 | 204 | 3.5 | 13.0 | 0.00 | 0.53 | 0.36 | 100 | 1004.1 |
| 20260506190017 | 55 | 204 | 4.3 | 11.3 | 0.00 | 0.53 | 0.36 | 100 | 1004.0 |
| 20260506184606 | 54 | 204 | 5.2 | 10.4 | 0.00 | 0.61 | 0.36 | 100 | 1004.2 |
| 20260506183042 | 54 | 204 | 5.2 | 13.0 | 0.01 | 0.61 | 0.36 | 100 | 1004.1 |
| 20260506181519 | 54 | 204 | 6.1 | 14.8 | 0.04 | 0.61 | 0.36 | 100 | 1004.2 |
| 20260506180058 | 54 | 204 | 7.0 | 13.9 | 0.05 | 0.61 | 0.36 | 99 | 1004.2 |
| 20260506174534 | 54 | 204 | 7.8 | 13.9 | 0.06 | 0.63 | 0.36 | 99 | 1004.2 |
| 20260506173018 | 54 | 204 | 7.0 | 13.9 | 0.05 | 0.61 | 0.34 | 99 | 1004.1 |
| 20260506171558 | 54 | 204 | 7.0 | 14.8 | 0.04 | 0.59 | 0.32 | 99 | 1004.3 |
| 20260506170029 | 54 | 204 | 6.1 | 13.0 | 0.04 | 0.57 | 0.31 | 99 | 1004.2 |
| 20260506164514 | 54 | 204 | 6.1 | 13.9 | 0.04 | 0.59 | 0.30 | 99 | 1004.1 |
| 20260506163044 | 54 | 204 | 7.8 | 16.5 | 0.04 | 0.57 | 0.28 | 99 | 1004.0 |
| 20260506161521 | 54 | 204 | 7.0 | 14.8 | 0.06 | 0.56 | 0.28 | 99 | 1004.0 |
| 20260506160113 | 54 | 204 | 7.0 | 13.9 | 0.09 | 0.56 | 0.27 | 99 | 1003.9 |
| 20260506154540 | 54 | 204 | 9.6 | 17.4 | 0.11 | 0.55 | 0.26 | 99 | 1004.1 |
| 20260506153014 | 54 | 204 | 8.7 | 16.5 | 0.11 | 0.54 | 0.25 | 99 | 1004.2 |
| 20260506151601 | 54 | 204 | 8.7 | 15.6 | 0.11 | 0.51 | 0.22 | 98 | 1004.4 |
| 20260506150039 | 54 | 204 | 8.7 | 16.5 | 0.09 | 0.47 | 0.18 | 98 | 1004.2 |
| 20260506144516 | 54 | 204 | 7.8 | 15.6 | 0.09 | 0.44 | 0.15 | 98 | 1004.2 |
| 20260506143054 | 54 | 204 | 11.3 | 20.0 | 0.09 | 0.43 | 0.14 | 97 | 1004.2 |
| 20260506141534 | 54 | 204 | 8.7 | 19.1 | 0.07 | 0.40 | 0.11 | 97 | 1004.2 |
| 20260506140010 | 54 | 204 | 9.6 | 20.9 | 0.06 | 0.38 | 0.09 | 97 | 1004.3 |
| 20260506134548 | 54 | 204 | 9.6 | 19.1 | 0.04 | 0.35 | 0.06 | 97 | 1004.3 |
| 20260506133027 | 54 | 204 | 10.4 | 19.1 | 0.04 | 0.34 | 0.05 | 96 | 1004.7 |
| 20260506131513 | 54 | 204 | 9.6 | 20.0 | 0.04 | 0.33 | 0.04 | 95 | 1004.8 |
| 20260506130048 | 54 | 204 | 10.4 | 18.2 | 0.03 | 0.32 | 0.03 | 94 | 1005.1 |
| 20260506124522 | 55 | 204 | 9.6 | 16.5 | 0.02 | 0.31 | 0.02 | 93 | 1005.2 |
| 20260506123100 | 55 | 204 | 10.4 | 18.2 | 0.01 | 0.30 | 0.01 | 89 | 1004.9 |
| 20260506121536 | 56 | 204 | 11.3 | 20.0 | 0.00 | 0.28 | 0.00 | 86 | 1004.9 |
| 20260506120019 | 57 | 204 | 9.6 | 17.4 | 0.00 | 0.28 | 0.00 | 83 | 1004.9 |
| 20260506114600 | 58 | 204 | 11.3 | 19.1 | 0.00 | 0.28 | 0.00 | 79 | 1005.0 |
| 20260506113037 | 58 | 204 | 9.6 | 18.2 | 0.00 | 0.28 | 0.00 | 77 | 1004.9 |
| 20260506111514 | 59 | 204 | 9.6 | 20.0 | 0.00 | 0.28 | 0.00 | 75 | 1004.7 |
| 20260506104534 | 59 | 204 | 8.7 | 20.9 | 0.00 | 0.28 | 0.00 | 74 | 1004.6 |
| 20260506103035 | 59 | 204 | 7.0 | 19.1 | 0.00 | 0.28 | 0.00 | 73 | 1004.4 |
| 20260506101509 | 59 | 204 | 10.4 | 20.9 | 0.00 | 0.28 | 0.00 | 71 | 1004.3 |
| 20260506100056 | 60 | 204 | 9.6 | 14.8 | 0.00 | 0.28 | 0.00 | 68 | 1004.2 |
| 20260506094545 | 60 | 204 | 8.7 | 14.8 | 0.00 | 0.28 | 0.00 | 67 | 1004.3 |
| 20260506093011 | 60 | 204 | 8.7 | 17.4 | 0.00 | 0.28 | 0.00 | 66 | 1004.6 |
| 20260506091550 | 60 | 204 | 8.7 | 18.2 | 0.00 | 0.28 | 0.00 | 65 | 1004.6 |
| 20260506090035 | 60 | 204 | 7.8 | 15.6 | 0.00 | 0.28 | 0.00 | 63 | 1004.8 |
| 20260506084516 | 61 | 204 | 6.1 | 13.9 | 0.00 | 0.28 | 0.00 | 62 | 1004.8 |
| 20260506083109 | 61 | 204 | 8.7 | 17.4 | 0.00 | 0.28 | 0.00 | 61 | 1004.9 |
| 20260506081554 | 61 | 204 | 10.4 | 18.2 | 0.00 | 0.28 | 0.00 | 59 | 1004.8 |
| 20260506073059 | 62 | 204 | 11.3 | 21.7 | 0.00 | 0.28 | 0.00 | 56 | 1004.9 |
| 20260506071559 | 62 | 204 | 10.4 | 16.5 | 0.00 | 0.28 | 0.00 | 55 | 1005.1 |
| 20260506061556 | 63 | 204 | 10.4 | 20.0 | 0.00 | 0.28 | 0.00 | 53 | 1005.5 |
| 20260506044541 | 63 | 204 | 13.0 | 22.6 | 0.00 | 0.28 | 0.00 | 49 | 1006.2 |
| 20260506043032 | 63 | 204 | 8.7 | 18.2 | 0.00 | 0.28 | 0.00 | 49 | 1006.2 |
| 20260506041535 | 64 | 204 | 8.7 | 14.8 | 0.00 | 0.28 | 0.00 | 49 | 1006.4 |
| 20260506040029 | 64 | 204 | 8.7 | 15.6 | 0.00 | 0.28 | 0.00 | 49 | 1006.5 |
| 20260506034518 | 64 | 204 | 9.6 | 17.4 | 0.00 | 0.28 | 0.28 | 50 | 1006.5 |
| 20260506033016 | 64 | 204 | 7.0 | 15.6 | 0.00 | 0.28 | 0.28 | 50 | 1006.6 |
| 20260506031508 | 65 | 204 | 7.8 | 14.8 | 0.00 | 0.28 | 0.28 | 49 | 1006.7 |
| 20260506030046 | 65 | 204 | 7.8 | 16.5 | 0.00 | 0.28 | 0.28 | 49 | 1006.6 |
| 20260506024540 | 66 | 204 | 9.6 | 19.1 | 0.00 | 0.28 | 0.28 | 49 | 1006.6 |
| 20260506023003 | 66 | 204 | 10.4 | 17.4 | 0.00 | 0.28 | 0.28 | 49 | 1006.7 |
| 20260506021547 | 66 | 204 | 8.7 | 15.6 | 0.00 | 0.28 | 0.28 | 48 | 1006.7 |